Powrót do katalogu

FENGYUN 1C DEB

AktywnyPO
NORAD 41009·DEBRIS·🇨🇳 China

Wystrzelony May 10, 1999 z Taiyuan Satellite Launch Center

Loading…

Następne Przeloty (najbliższe 24 godziny)

TLE

ŚwieżeSource: Space-Track

Epoka: Sep 13, 2026, 05:35 UTC

1 41009U 99025EXP 26256.23319517  .00005155  00000-0  12009-2 0  9991
2 41009  99.2071 262.9134 0012293 348.6517  11.4398 14.55269143629746

Śledź FENGYUN 1C DEB w czasie rzeczywistym z AllMySat

Download on the App Store